{"data":{"norad_id":69248,"intl_designator":"2026-117L","name":"STARLINK-37412","alt_names":[],"object_type":"PAYLOAD","status":"ACTIVE","operator":null,"country":"US","launch_date":"2026-05-29","launch_site_code":"AFETR","launch_vehicle":null,"mission":null,"orbit_class":"UNKNOWN","rcs_meters":null,"size_class":null,"mass_kg":null,"dimensions":null,"purposes":["comms"],"wikipedia_slug":null,"has_3d_model":false,"image_url":null,"decayed_at":null,"tle_current":{"epoch":"2026-09-19T22:40:18.388128Z","epoch_age_seconds":74956,"freshness":"FRESH","line1":"1 69248U 26117L   26262.94465727  .00021330  00000+0  64085-3 0  9992","line2":"2 69248  53.1563 156.2007 0001636  99.8175 260.3012 15.34388542 17588","mean_motion":15.34388542,"eccentricity":0.0001636,"inclination_deg":53.1563,"raan_deg":156.2007,"arg_perigee_deg":99.8175,"mean_anomaly_deg":260.3012,"bstar":0.00064085,"rev_number":1758,"period_min":93.848458886628,"perigee_km":461.61812897487,"apogee_km":463.85646304452,"semimajor_km":6840.8742960097,"source":"CELESTRAK","updated_at":"2026-09-20T09:00:44.149343Z"}}}